Zurück zum Katalog

ATLAS 5 CENTAUR DEB

LostHEO
NORAD 46655·DEBRIS·🇺🇸 United States

Gestartet Oct 17, 2018 von Cape Canaveral Space Force Station

Loading…

Nächste Überflüge (nächste 24 Stunden)

TLE

VeraltetSource: Space-Track

Epoche: Aug 28, 2023, 05:05 UTC

1 46655U 18079CH  23240.21225063 -.00000101  00000-0  00000+0 0  9995
2 46655  12.3162  80.1128 3606401 230.9332  91.0884  2.03711266 21545

Verfolge ATLAS 5 CENTAUR DEB in Echtzeit mit AllMySat

Download on the App Store